Location: Palomar Mountain Lodge
(33.3110°N, 116.8495°W)
Time: 23:58:01
(UTC-08:00)

Lacrosse 5 rocket - Pass Details

Date: 12 July 2018
Orbit: 459 x 640 km, 57.0° (Epoch: 18 November)

Event Time Altitude Azimuth Distance (km) Brightness Sun altitude
Exits shadow 23:48:41 - 276° (W) 2,439 4.9 -32.8°
Reaches altitude 10° 23:51:17 10° 302° (WNW) 1,854 4.5 -32.9°
Maximum altitude 23:53:02 12° 326° (NNW) 1,735 4.6 -33.0°
Drops below altitude 10° 23:54:49 10° 351° (N) 1,904 4.9 -33.1°
Sets 23:58:30 0° 22° (NNE) 2,853 5.7 -33.3°
